Time,TemperatureF,DewpointF,PressureIn,WindDirection,WindDirectionDegrees,WindSpeedMPH,WindSpeedGustMPH,Humidity,HourlyPrecipIn,Conditions,Clouds,dailyrainin,SoftwareType,DateUTC
2014-12-29 00:07:00,32.6,24.0,30.03,South,175,0.0,1.0,70,0.00,,,0.00,weatherlink.com 1.10,2014-12-29 05:07:00,
2014-12-29 00:22:00,32.3,23.0,30.04,South,173,0.0,1.0,69,0.00,,,0.00,weatherlink.com 1.10,2014-12-29 05:22:00,
2014-12-29 00:37:00,32.1,24.0,30.03,East,98,0.0,1.0,71,0.00,,,0.00,weatherlink.com 1.10,2014-12-29 05:37:00,
2014-12-29 00:52:00,31.9,23.0,30.03,SSE,166,1.0,2.0,71,0.00,,,0.00,weatherlink.com 1.10,2014-12-29 05:52:00,
2014-12-29 01:07:00,32.0,23.0,30.03,East,88,0.0,3.0,70,0.00,,,0.00,weatherlink.com 1.10,2014-12-29 06:07:00,
2014-12-29 01:22:00,32.1,24.0,30.04,SSE,160,0.0,2.0,71,0.00,,,0.00,weatherlink.com 1.10,2014-12-29 06:22:00,
2014-12-29 01:37:00,31.9,24.0,30.04,SSE,160,0.0,0.0,72,0.00,,,0.00,weatherlink.com 1.10,2014-12-29 06:37:00,
2014-12-29 01:52:00,31.6,24.0,30.05,SSE,160,0.0,0.0,72,0.00,,,0.00,weatherlink.com 1.10,2014-12-29 06:52:00,
2014-12-29 02:07:00,31.4,24.0,30.06,WNW,284,0.0,3.0,75,0.00,,,0.00,weatherlink.com 1.10,2014-12-29 07:07:00,
2014-12-29 02:22:00,31.6,24.0,30.05,South,185,0.0,3.0,74,0.00,,,0.00,weatherlink.com 1.10,2014-12-29 07:22:00,
2014-12-29 02:37:00,31.9,25.0,30.06,South,173,0.0,2.0,74,0.00,,,0.00,weatherlink.com 1.10,2014-12-29 07:37:00,
2014-12-29 02:52:00,32.0,25.0,30.06,WNW,292,0.0,3.0,74,0.00,,,0.00,weatherlink.com 1.10,2014-12-29 07:52:00,
2014-12-29 03:07:00,32.2,24.0,30.06,ENE,78,2.0,3.0,73,0.00,,,0.00,weatherlink.com 1.10,2014-12-29 08:07:00,
2014-12-29 03:22:00,32.2,24.0,30.06,NE,49,0.0,1.0,73,0.00,,,0.00,weatherlink.com 1.10,2014-12-29 08:22:00,
2014-12-29 03:37:00,32.0,24.0,30.07,North,355,1.0,5.0,71,0.00,,,0.00,weatherlink.com 1.10,2014-12-29 08:37:00,
2014-12-29 03:52:00,31.9,24.0,30.07,East,87,0.0,1.0,72,0.00,,,0.00,weatherlink.com 1.10,2014-12-29 08:52:00,
2014-12-29 04:07:00,31.9,24.0,30.06,SW,217,0.0,1.0,73,0.00,,,0.00,weatherlink.com 1.10,2014-12-29 09:07:00,
2014-12-29 04:22:00,31.6,23.0,30.07,SE,134,0.0,2.0,71,0.00,,,0.00,weatherlink.com 1.10,2014-12-29 09:22:00,
2014-12-29 04:37:00,31.6,24.0,30.07,SE,134,0.0,2.0,73,0.00,,,0.00,weatherlink.com 1.10,2014-12-29 09:37:00,
2014-12-29 04:52:00,31.6,24.0,30.07,East,96,0.0,3.0,74,0.00,,,0.00,weatherlink.com 1.10,2014-12-29 09:52:00,
2014-12-29 05:07:00,31.7,23.0,30.07,SE,141,2.0,4.0,71,0.00,,,0.00,weatherlink.com 1.10,2014-12-29 10:07:00,
2014-12-29 05:22:00,31.8,23.0,30.09,NE,42,0.0,2.0,70,0.00,,,0.00,weatherlink.com 1.10,2014-12-29 10:22:00,
2014-12-29 05:37:00,31.7,24.0,30.08,NE,42,0.0,0.0,73,0.00,,,0.00,weatherlink.com 1.10,2014-12-29 10:37:00,
2014-12-29 05:52:00,31.1,24.0,30.09,ENE,71,0.0,2.0,74,0.00,,,0.00,weatherlink.com 1.10,2014-12-29 10:52:00,
2014-12-29 06:07:00,30.5,23.0,30.09,ENE,67,0.0,1.0,75,0.00,,,0.00,weatherlink.com 1.10,2014-12-29 11:07:00,
2014-12-29 06:22:00,30.1,22.0,30.10,ESE,114,0.0,2.0,72,0.00,,,0.00,weatherlink.com 1.10,2014-12-29 11:22:00,
2014-12-29 06:37:00,30.0,23.0,30.10,WSW,240,0.0,4.0,74,0.00,,,0.00,weatherlink.com 1.10,2014-12-29 11:37:00,
2014-12-29 06:52:00,29.9,22.0,30.11,SSW,196,0.0,2.0,73,0.00,,,0.00,weatherlink.com 1.10,2014-12-29 11:52:00,
2014-12-29 07:07:00,29.7,22.0,30.11,SSW,210,0.0,0.0,73,0.00,,,0.00,weatherlink.com 1.10,2014-12-29 12:07:00,
2014-12-29 07:22:00,29.2,23.0,30.11,South,188,0.0,3.0,76,0.00,,,0.00,weatherlink.com 1.10,2014-12-29 12:22:00,
2014-12-29 07:37:00,28.8,22.0,30.10,South,188,0.0,1.0,76,0.00,,,0.00,weatherlink.com 1.10,2014-12-29 12:37:00,
2014-12-29 07:52:00,28.7,22.0,30.10,South,188,0.0,0.0,76,0.00,,,0.00,weatherlink.com 1.10,2014-12-29 12:52:00,
2014-12-29 08:08:00,29.3,23.0,30.10,SSE,163,0.0,1.0,77,0.00,,,0.00,weatherlink.com 1.10,2014-12-29 13:08:00,
2014-12-29 08:23:00,30.7,23.0,30.11,SSE,163,0.0,3.0,72,0.00,,,0.00,weatherlink.com 1.10,2014-12-29 13:23:00,
2014-12-29 08:38:00,31.9,22.0,30.12,SE,133,1.0,5.0,67,0.00,,,0.00,weatherlink.com 1.10,2014-12-29 13:38:00,
2014-12-29 08:53:00,32.5,22.0,30.13,SE,142,0.0,5.0,65,0.00,,,0.00,weatherlink.com 1.10,2014-12-29 13:53:00,
2014-12-29 09:08:00,32.6,22.0,30.14,SE,132,1.0,2.0,64,0.00,,,0.00,weatherlink.com 1.10,2014-12-29 14:08:00,
2014-12-29 09:23:00,32.4,22.0,30.15,SE,136,2.0,4.0,66,0.00,,,0.00,weatherlink.com 1.10,2014-12-29 14:23:00,
2014-12-29 09:38:00,32.5,21.0,30.15,East,87,0.0,4.0,64,0.00,,,0.00,weatherlink.com 1.10,2014-12-29 14:38:00,
2014-12-29 09:53:00,32.8,22.0,30.15,South,169,3.0,7.0,64,0.00,,,0.00,weatherlink.com 1.10,2014-12-29 14:53:00,